Weather History for Louisville, KY

Change the Weather History Date:

Saturday, July 7, 2012

  Actual Average Record
Temperature  
Mean Temperature 93 °F 79 °F  
Max Temperature 106 °F 89 °F 106 °F (2012)
Min Temperature 80 °F 70 °F 50 °F (1972)
Degree Days  
Heating Degree Days 0 0  
Month to date heating degree days 0 0  
Since 1 June heating degree days 7 5  
Since 1 July heating degree days 0 0  
Cooling Degree Days 28 14  
Month to date cooling degree days 169 98  
Year to date cooling degree days 876 596  
Since 1 June cooling degree days 521 422  
Growing Degree Days 43 (Base 50)    
Moisture  
Dew Point 67 °F    
Average Humidity 49    
Maximum Humidity 74    
Minimum Humidity 24    
Precipitation  
Precipitation 0.00 in 0.13 in 3.74 in (1922)
Month to date precipitation 0.05 0.89  
Year to date precipitation 24.16 24.55  
Snow  
Snow 0.00 in 0.00 in - ()
Month to date snowfall 0.0 0.0  
Since 1 June snowfall 0.0 0.0  
Since 1 July snowfall 0.0 0.0  
Snow Depth 0.00 in    
Sea Level Pressure  
Sea Level Pressure 29.93 in    
Wind  
Wind Speed 3 mph (SE)    
Max Wind Speed 9 mph    
Max Gust Speed 16 mph    
Visibility 10 miles    
Events      
T = Trace of Precipitation, MM = Missing Value Source: NWS Daily Summary

Daily Weather History Graph

Daily Weather History Graph

Search for Another Location

Airport:

Trip Planner

Search our weather history database for the weather conditions in past years. The results will help you decide how hot, cold, wet, or windy it might be!

Date:

Astronomy

Jul. 07, 2012 Rise Set
Actual Time 6:26 AM EDT 9:08 PM EDT
Civil Twilight 5:55 AM EDT 9:39 PM EDT
Nautical Twilight 5:16 AM EDT 10:18 PM EDT
Astronomical Twilight 4:33 AM EDT 11:02 PM EDT
Moon 11:32 PM EDT (7/7) 10:46 AM EDT (7/7)
Length of Visible Light 15h 43m
Length of Day
14h 41m
Waning Gibbous, 82% of the Moon is Illuminated
Jul 7
Waning Gibbous
Jul 10
Last Quarter
Jul 19
New
Jul 26
First Quarter
Aug 1
Full

Hourly Weather History & Observations

Time (EDT) Temp. Heat Index Dew Point Humidity Pressure Visibility Wind Dir Wind Speed Gust Speed Precip Events Conditions
12:56 AM 86.0 °F 90.1 °F 69.1 °F 57% 29.95 in 10.0 mi SE 3.5 mph - N/A   Partly Cloudy
1:56 AM 84.9 °F 88.8 °F 69.1 °F 59% 29.94 in 10.0 mi Calm Calm - N/A   Partly Cloudy
2:56 AM 84.0 °F 88.4 °F 70.0 °F 63% 29.94 in 10.0 mi Calm Calm - N/A   Mostly Cloudy
3:56 AM 84.0 °F 88.4 °F 70.0 °F 63% 29.93 in 10.0 mi Calm Calm - N/A   Mostly Cloudy
4:56 AM 82.0 °F 85.5 °F 69.1 °F 65% 29.94 in 10.0 mi Calm Calm - N/A   Mostly Cloudy
5:56 AM 81.0 °F 84.4 °F 70.0 °F 69% 29.96 in 10.0 mi Calm Calm - N/A   Mostly Cloudy
6:56 AM 80.1 °F 83.6 °F 71.1 °F 74% 29.97 in 9.0 mi Calm Calm - N/A   Overcast
7:56 AM 82.0 °F 85.9 °F 70.0 °F 67% 29.98 in 9.0 mi Calm Calm - N/A   Overcast
8:56 AM 88.0 °F 92.9 °F 70.0 °F 55% 29.97 in 8.0 mi Calm Calm - N/A   Mostly Cloudy
9:56 AM 93.0 °F 99.0 °F 70.0 °F 47% 29.98 in 9.0 mi Calm Calm - N/A   Mostly Cloudy
10:56 AM 98.1 °F 103.0 °F 68.0 °F 37% 29.98 in 9.0 mi Calm Calm - N/A   Mostly Cloudy
11:56 AM 100.0 °F 105.6 °F 68.0 °F 35% 29.97 in 9.0 mi Variable 3.5 mph - N/A   Mostly Cloudy
12:56 PM 102.0 °F 107.3 °F 66.9 °F 32% 29.95 in 10.0 mi Variable 3.5 mph - N/A   Mostly Cloudy
1:56 PM 102.0 °F 105.9 °F 64.9 °F 30% 29.94 in 10.0 mi East 5.8 mph - N/A   Mostly Cloudy
2:56 PM 105.1 °F 108.5 °F 64.0 °F 26% 29.93 in 10.0 mi NW 4.6 mph - N/A   Mostly Cloudy
3:56 PM 104.0 °F 107.4 °F 64.0 °F 27% 29.91 in 10.0 mi SSE 8.1 mph - N/A   Mostly Cloudy
4:56 PM 104.0 °F 105.3 °F 60.1 °F 24% 29.89 in 10.0 mi East 3.5 mph - N/A   Mostly Cloudy
5:56 PM 102.9 °F 103.0 °F 59.0 °F 23% 29.88 in 10.0 mi SSE 3.5 mph - N/A   Mostly Cloudy
6:56 PM 102.9 °F 103.0 °F 59.0 °F 23% 29.87 in 10.0 mi SE 5.8 mph - N/A   Mostly Cloudy
7:56 PM 100.9 °F 103.3 °F 63.0 °F 29% 29.87 in 10.0 mi SE 4.6 mph - N/A   Mostly Cloudy
8:56 PM 97.0 °F 100.4 °F 66.0 °F 36% 29.87 in 10.0 mi SE 4.6 mph - N/A   Mostly Cloudy
9:56 PM 93.9 °F 97.5 °F 66.9 °F 41% 29.89 in 10.0 mi SE 4.6 mph - N/A   Scattered Clouds
10:56 PM 91.9 °F 94.1 °F 64.9 °F 41% 29.92 in 9.0 mi WNW 5.8 mph - N/A   Scattered Clouds
11:56 PM 88.0 °F 91.4 °F 68.0 °F 51% 29.92 in 9.0 mi SW 3.5 mph - N/A   Scattered Clouds